EHI
0 0 0 0 0 0 0 0 0 0 0 0 0 0 0 0 0 0 0 0 0 0 0 0 0 0 0 0 0 0 0 0 0 0 0 0 0 0 0 0 0 0 0
0 0 0 0 0 0 0 0 0 0 0 0 0 0 0 0 0 0 0 0 0 0 0 0 0 0 0 0 0 0 0 0 0 0 0 0 0 0 0 0 0 0 0
0 0 0 0 0 0 0 0 0 0 0 0 0 0 0 0 0 0 0 0 0 0 0 0 0 0 0 0 0 0 0 0 0 0 0 0 0 0 0 0 0 0 0
0 0 0 0 0 0 0 0 0 0 0 0 0 0 0 0 0 0 0 0 0 0 0 0 0 0 0 0 0 0 0 0 0 0 0 0 0 0 0 0 0 0 0
0 0 0 0 0 0 0 0 0 0 0 0 0 0 0 0 0 0 0 0 0 0 0 0 0 0 0 0 0 0 0 0 0 0 0 0 0 0 0 0 0 0 0
0 0 0 0 0 0 0 0 0 0 0 0 0 0 0 0 0 0 0 0 0 0 0 0 0 0 0 0 0 0 0 0 0 0 0 0 0 0 0 0 0 0 0
0 0 0 0 0 0 0 0 0 0 0 0 0 0 0 0 0 0 0 0 0 0 0 0 0 0 0 0 0 0 0 0 0 0 0 0 0 0 0 0 0 0 0
0 0 0 0 0 0 0 0 0 0 0 0 0 0 0 0 0 0 0 0 0 0 0 0 0 0 0 0 0 0 0 0 0 0 0 0 0 0 0 0 0 0 0
0 0 0 0 0 0 0 0 0 0 0 0 0 0 0 0 0 0 0 0 0 0 0 0 0 0 0 0 0 0 0 0 0 0 0 0 0 0 0 0 0 0 0
0 0 0 0 0 0 0 0 0 0 0 0 0 0 0 0 0 0 0 0 0 0 0 0 0 0 0 0 0 0 0 0 0 0 0 0 0 0 0 0 0 0 0
0 0 0 0 0 0 0 0 0 0 0 0 0 0 0 0 0 0 0 0 0 0 0 0 0 0 0 0 0 0 0 0 0 0 0 0 0 0 0 0 0 0 0
0 0 0 0 0 0 0 0 0 0 0 0 0 0 0 0 0 0 0 0 0 0 0 0 0 0 0 0 0 0 0 0 0 0 0 0 0 0 0 0 0 0 0
0 0 0 0 0 0 0 0 0 0 0 0 0 0 0 0 0 0 0 0 0 0 0 0 0 0 0 0 0 0 0 0 0 0 0 0 0 0 0 0 0 0 0
0 0 0 0 0 0 0 0 0 0 0 0 0 0 0 0 0 0 0 0 0 0 0 0 0 0 0 0 0 0 0 0 0 0 0 0 0 0 0 0 0 0 0
0 0 0 0 0 0 0 0 0 0 0 0 0 0 0 0 0 0 0 0 0 0 0 0 0 0 0 0 0 0 0 0 0 0 0 0 0 0 0 0 0 0 0
0 0 0 0 0 0 0 0 0 0 0 0 0 0 0 0 0 0 0 0 0 0 0 0 0 0 0 0 0 0 0 0 0 0 0 0 0 0 0 0 0 0 0
0 0 0 0 0 0 0 0 0 0 0 0 0 0 0 0 0 0 0 0 0 0 0 0 0 0 0 0 0 0 0 0 0 0 0 0 0 0 0 0 0 0 0
0 0 0 0 0 0 0 0 0 0 0 0 0 0 0 0 0 0 0 0 0 0 0 0 0 0 0 0 0 0 0 0 0 0 0 0 0 0 0 0 0 0 0
0 0 0 0 0 0 0 0 0 0 0 0 0 0 0 0 0 0 0 0 0 0 0 0 0 0 0 0 0 0 0 0 0 0 0 0 0 0 0 0 0 0 0
0 0 0 0 0 0 0 0 0 0 0 0 0 0 0 0 0 0 0 0 0 0 0 0 0 0 0 0 0 0 0 0 0 0 0 0 0 0 0 0 0 0 0
0 0 0 0 0 0 0 0 0 0 0 0 0 0 0 0 0 0 0 0 0 0 0 0 0 0 0 0 0 0 0 0 0 0 0 0 0 0 0 0 0 0 0
0 0 0 0 0 0 0 0 0 0 0 0 0 0 0 0 0 0 0 0 0 0 0 0 0 0 0 0 0 0 0 0 0 0 0 0 0 0 0 0 0 0 0
0 0 0 0 0 0 0 0 0 0 0 0 0 0 0 0 0 0 0 0 0 0 0 0 0 0 0 0 0 0 0 0 0 0 0 0 0 0 0 0 0 0 0
0 0 0 0 0 0 0 0 0 0 0 0 0 0 0 0 0 0 0 0 0 0 0 0 0 0 0 0 0 0 0 0 0 0 0 0 0 0 0 0 0 0 0
0 0 0 0 0 0 0 0 0 0 0 0 0 0 0 0 0 0 0 0 0 0 0 0 0 0 0 0 0 0 0 0 0 0 0 0 0 0 0 0 0 0 0
0 0 0 0 0 0 0 0 0 0 0 0 0 0 0 0 0 0 0 0 0 0 0 0 0 0 0 0 0 0 0 0 0 0 0 0 0 0 0 0 0 0 0
Wind_Speed
6 7 8 8 9 10 9 11 12 12 13 14 14 14 15 15 15 14 14 14 14 13 13 13 12 12 9 8 8 8 8 9 11 12 11 12 14 13 11 11 11 11 10
6 7 8 8 9 9 10 11 12 12 13 13 14 14 14 14 14 14 13 13 13 13 14 14 14 12 14 10 9 10 9 9 10 13 12 11 13 13 12 12 10 9 9
6 7 7 8 9 10 10 11 11 12 13 13 13 14 13 13 13 12 11 11 12 12 13 13 14 15 15 12 12 11 10 10 10 11 12 10 9 9 11 10 11 9 9
6 7 7 8 9 10 10 11 11 12 12 13 13 14 13 13 12 11 9 9 10 11 12 13 13 14 15 15 12 13 12 12 11 10 10 9 8 9 8 7 7 6 7
6 7 7 8 9 9 10 10 11 11 11 12 13 14 14 12 11 11 6 8 9 11 12 12 13 17 20 16 12 13 13 11 10 9 9 9 8 8 7 6 7 7 7
6 7 7 8 9 9 10 10 11 11 11 12 12 13 14 11 19 20 10 8 9 10 12 13 14 15 20 19 19 18 16 13 12 10 9 9 10 10 9 8 7 6 4
6 7 7 8 9 10 10 10 11 11 11 12 12 13 14 15 21 21 16 10 10 10 11 12 12 13 18 13 15 17 15 16 15 11 11 10 11 11 11 10 8 7 6
6 7 7 7 9 10 11 11 11 11 11 11 12 13 14 15 21 22 19 11 9 10 10 12 14 15 16 17 14 13 12 11 12 9 9 10 10 11 10 10 10 10 9
7 7 7 8 9 10 11 11 11 11 11 11 12 13 13 15 20 23 20 10 8 10 10 11 13 15 21 23 15 14 14 12 12 15 15 13 14 14 11 7 7 6 4
7 7 7 8 9 10 11 11 11 11 11 11 12 12 13 14 19 22 22 8 7 8 9 10 14 18 22 22 15 14 15 14 13 12 11 11 9 9 11 6 6 5 5
6 7 8 8 9 10 10 10 10 10 11 11 12 12 13 14 17 20 19 7 6 8 8 9 10 20 21 21 18 13 17 16 12 11 9 8 7 6 7 6 5 5 5
6 7 8 8 8 8 10 10 9 9 10 10 11 11 11 12 15 16 17 14 10 7 8 8 10 19 19 18 15 19 21 16 9 9 9 8 8 8 8 9 8 6 7
6 7 7 8 8 7 8 9 8 7 7 9 9 9 10 10 12 15 14 14 14 7 7 11 14 16 16 13 17 20 16 11 10 10 10 9 9 9 9 8 8 6 7
6 6 6 7 7 7 6 6 6 6 7 9 9 10 10 10 10 10 9 9 10 7 7 9 12 12 11 13 13 12 10 11 11 10 10 10 9 9 8 8 8 7 4
7 6 6 6 6 6 5 5 6 6 7 9 8 9 10 10 14 20 13 10 9 9 8 6 6 7 8 9 9 9 10 10 11 10 10 10 10 10 9 9 7 7 5
6 5 4 4 4 5 6 5 5 6 10 11 11 11 10 14 19 19 18 16 15 15 9 7 7 7 8 9 9 9 10 10 11 11 10 10 10 10 10 9 8 7 6
7 5 4 4 4 4 5 6 6 5 6 7 10 13 14 17 17 17 17 15 13 13 7 7 7 7 7 7 8 8 9 10 10 10 10 11 10 10 10 10 9 8 7
8 7 6 4 4 4 4 5 5 6 7 6 7 10 14 16 15 15 16 12 8 9 7 8 7 7 6 6 7 7 8 9 9 10 10 10 10 10 10 10 9 10 8
8 6 5 4 4 4 4 4 4 5 6 6 6 7 12 13 12 12 12 7 8 8 8 8 8 7 6 6 6 6 7 7 9 9 10 11 10 10 10 10 9 13 10
8 10 7 5 4 4 3 3 4 4 5 5 6 6 9 9 7 8 8 7 7 8 8 8 8 7 6 5 5 5 6 6 8 8 9 9 10 10 10 11 10 9 8
8 8 11 6 4 4 3 3 3 3 4 4 5 6 11 7 6 7 7 7 7 8 9 9 8 7 6 5 4 4 5 5 6 7 8 8 9 9 9 9 10 9 8
8 7 7 6 5 4 4 3 3 3 4 5 4 5 8 5 5 6 7 7 8 8 8 8 8 7 6 5 4 3 3 4 5 6 7 8 8 8 9 9 10 9 8
9 8 7 6 5 6 5 4 3 3 3 4 4 4 5 5 5 6 7 7 8 8 8 8 8 7 6 5 3 3 2 2 3 4 6 7 7 8 8 9 10 10 10
10 10 9 7 6 6 5 4 4 3 3 3 3 4 4 5 5 7 7 7 8 9 9 9 9 11 11 7 3 2 2 2 1 1 4 5 6 7 7 8 9 10 9
11 10 9 8 7 7 6 5 4 4 3 2 3 3 4 5 5 6 7 7 10 10 11 11 9 10 11 10 5 3 4 5 4 1 1 3 5 6 7 8 8 8 9
11 11 9 8 8 7 6 6 5 4 3 2 2 3 3 4 5 6 6 7 9 9 10 10 12 14 12 8 4 4 6 8 7 4 1 2 4 5 6 6 8 8 9
Wind_Direction
311 313 314 318 318 317 315 317 319 319 320 322 324 326 327 329 329 327 331 334 335 336 337 334 329 321 320 315 308 304 298 294 293 297 299 301 301 297 290 281 274 266 261
306 308 311 315 317 317 318 319 318 319 321 321 323 324 326 327 326 325 331 333 335 335 336 336 335 333 332 327 323 318 313 307 300 300 301 303 303 301 297 287 275 262 255
297 302 308 315 319 319 319 318 318 319 321 322 323 323 323 324 323 321 328 330 333 333 333 333 332 332 332 333 330 328 321 315 306 300 302 305 305 308 305 291 277 262 256
291 298 305 315 319 318 316 315 317 319 321 322 320 319 319 318 318 313 315 326 331 333 333 331 329 329 330 332 332 332 328 320 313 307 306 311 313 318 311 304 292 280 264
284 294 304 311 314 313 313 314 316 317 319 319 318 317 317 317 314 314 300 320 331 335 334 332 329 332 333 335 336 334 331 325 320 317 314 316 323 327 323 313 304 297 269
276 285 292 299 303 305 307 313 314 315 317 317 314 312 315 315 318 327 330 321 333 337 336 334 330 332 333 336 335 336 335 329 327 323 317 318 320 321 320 316 313 305 276
268 277 284 292 297 302 305 309 312 314 313 313 311 312 312 314 319 323 326 322 326 331 333 334 334 333 337 332 336 337 330 330 330 327 315 316 315 319 317 315 315 309 297
263 269 276 284 291 298 305 308 312 313 312 308 308 311 314 314 319 321 321 315 315 323 329 332 333 334 334 344 341 334 329 329 328 322 313 312 312 313 312 307 302 296 281
256 265 273 279 286 294 300 306 312 312 309 306 308 312 314 314 318 318 319 309 312 320 326 332 335 335 340 349 345 336 333 334 335 330 326 322 323 322 326 318 312 300 286
252 267 277 280 284 292 300 308 311 312 308 310 312 314 314 311 313 316 319 311 314 322 330 335 336 341 346 350 347 341 338 339 336 331 329 328 328 325 333 328 313 303 301
252 270 279 284 289 295 300 305 309 311 311 313 316 318 318 319 322 323 329 332 323 328 334 337 338 345 349 350 350 346 345 343 334 331 331 334 337 334 332 326 307 288 290
245 266 278 287 292 292 300 307 312 315 315 318 320 323 325 329 333 335 345 349 346 332 334 337 341 347 348 349 351 351 352 348 340 338 339 343 344 341 334 325 311 285 263
239 261 278 289 293 296 304 310 317 321 319 319 323 327 330 334 338 345 352 352 350 346 337 338 342 347 347 347 350 354 354 349 347 345 345 345 341 337 333 330 325 307 273
238 261 278 289 298 305 308 310 316 319 321 324 332 331 331 336 345 352 357 355 352 353 341 336 341 344 347 349 351 353 353 353 351 346 344 343 343 344 349 347 340 335 323
232 252 272 285 296 304 310 313 315 316 323 328 331 330 332 337 346 353 1 359 358 357 344 340 344 346 350 352 352 354 353 354 354 350 350 350 350 352 353 352 348 345 349
221 240 260 281 296 306 312 313 308 311 326 336 337 337 332 338 344 352 357 358 357 359 353 349 349 348 349 349 350 351 353 355 352 350 353 355 353 353 353 354 356 356 354
212 225 245 266 288 303 313 317 322 325 328 339 347 345 343 345 350 352 355 354 355 358 354 349 347 344 343 344 346 348 350 351 349 351 355 356 354 355 357 358 358 358 356
206 218 233 250 270 286 297 305 312 321 326 335 345 347 346 349 353 356 357 353 354 358 350 345 343 340 338 338 341 344 346 348 353 352 356 357 357 357 359 360 360 359 354
198 204 215 232 248 268 281 291 303 311 316 324 331 343 347 347 351 359 360 357 348 345 343 340 339 337 333 332 334 337 341 347 353 351 356 357 357 358 360 360 358 359 2
197 204 209 221 231 246 259 277 298 312 317 323 333 340 338 343 349 352 353 348 343 339 337 335 333 333 330 327 327 330 336 346 353 355 356 357 358 358 358 359 1 360 1
186 194 205 213 221 229 242 262 286 302 313 319 327 332 340 341 340 341 341 340 338 334 331 329 328 328 327 323 318 320 326 341 353 353 354 356 357 359 359 0 1 4 5
180 183 190 201 207 214 226 243 266 286 305 313 322 329 339 340 336 335 334 334 333 328 326 323 323 325 324 320 311 307 317 334 349 353 353 356 358 1 3 6 6 7 12
180 182 187 194 200 207 216 226 243 266 291 310 318 326 335 337 334 332 330 330 329 327 326 325 324 326 326 318 296 272 284 318 346 352 349 355 0 4 8 10 12 14 20
181 184 188 190 193 201 207 212 224 246 274 296 310 324 330 329 325 327 328 327 328 327 327 327 325 327 329 327 297 237 231 235 287 3 354 359 6 7 12 14 18 19 23
181 185 188 190 192 196 199 205 214 228 247 273 298 315 322 322 324 326 327 328 329 327 329 329 329 330 329 326 311 233 209 200 190 122 18 10 18 16 17 21 25 31 33
182 185 187 188 191 194 195 199 204 213 229 247 274 298 309 315 319 322 324 328 329 326 327 328 330 332 329 324 306 218 200 187 177 161 99 37 29 28 23 29 33 38 43